EW5112 Weather Reports


Display with metric or nautical units.
time (UTC)temp
F
wind
direction
speed
MPH
gust
MPH
rain 1hr
in
rain 24hr
in
rain mn
in
humidity
%
barometer
mb
20181211083927 30 157 0.0 1.0 0.00 0.03 0.00 96 1025.7
20181211080927 31 155 0.0 1.0 0.00 0.03 0.00 96 1025.4
20181211073923 32 155 0.0 2.0 0.00 0.03 0.03 97 1025.4
20181211070923 32 131 0.0 1.0 0.00 0.04 0.03 96 1025.3
20181211063923 32 131 0.0 1.0 0.00 0.04 0.03 96 1025.4
20181211060924 32 166 0.0 1.0 0.00 0.04 0.03 96 1025.6
20181211053923 33 115 0.0 1.0 0.00 0.04 0.03 96 1025.6
20181211050923 33 114 0.0 3.0 0.00 0.04 0.03 96 1025.3
20181211043923 33 134 1.0 2.0 0.00 0.05 0.03 96 1025.3
20181211040923 34 136 0.0 2.0 0.00 0.05 0.03 96 1025.6
20181211033920 34 87 0.0 1.0 0.00 0.05 0.03 95 1025.1
20181211030921 35 131 0.0 1.0 0.00 0.05 0.03 95 1024.9
20181211023922 37 129 0.0 1.0 0.00 0.06 0.03 95 1025.1
20181211020921 38 119 0.0 0.0 0.00 0.06 0.03 95 1025.1
20181211013921 39 119 0.0 1.0 0.00 0.07 0.03 93 1025.2
20181211010921 40 148 0.0 1.0 0.00 0.07 0.03 92 1024.8
20181211003921 42 148 0.0 2.0 0.00 0.07 0.03 91 1024.9
20181211000922 43 143 1.0 2.0 0.00 0.07 0.03 88 1024.6
20181210233921 45 259 0.0 1.0 0.00 0.07 0.03 85 1024.7
20181210230918 46 281 0.0 2.0 0.00 0.07 0.03 82 1024.4
20181210223916 48 294 0.0 2.0 0.00 0.07 0.03 81 1024.3
20181210220917 48 301 0.0 2.0 0.00 0.07 0.03 80 1024.5
20181210213916 48 98 0.0 2.0 0.00 0.08 0.03 81 1024.6
20181210210917 49 341 1.0 3.0 0.00 0.08 0.03 85 1025.0
20181210203917 48 335 1.0 3.0 0.00 0.08 0.03 88 1025.3
20181210200916 46 322 1.0 3.0 0.00 0.08 0.03 92 1025.7
20181210193923 46 309 1.0 2.0 0.00 0.08 0.03 94 1025.9
20181210190917 45 290 1.0 1.0 0.00 0.08 0.03 97 1026.2
20181210183916 44 126 0.0 1.0 0.00 0.08 0.03 98 1026.5
20181210180917 43 124 0.0 1.0 0.00 0.08 0.03 98 1026.4
20181210173914 42 124 0.0 0.0 0.00 0.08 0.03 98 1026.5
20181210170915 42 124 0.0 0.0 0.00 0.08 0.03 98 1026.2
20181210163915 41 124 0.0 0.0 0.00 0.08 0.03 98 1026.1
20181210160912 40 124 0.0 1.0 0.00 0.08 0.03 98 1025.6
20181210153913 40 124 0.0 1.0 0.00 0.08 0.03 98 1025.4
20181210150912 40 103 0.0 1.0 0.00 0.08 0.03 98 1025.4
20181210143912 40 104 0.0 1.0 0.00 0.08 0.03 98 1025.4
20181210140911 40 104 0.0 1.0 0.00 0.08 0.03 98 1024.9
20181210133910 40 103 0.0 1.0 0.00 0.08 0.03 98 1024.7
20181210130911 40 103 0.0 1.0 0.00 0.08 0.03 98 1024.6
20181210123911 41 103 0.0 1.0 0.00 0.08 0.03 98 1024.4
20181210120909 40 104 0.0 1.0 0.00 0.08 0.03 98 1024.3
20181210113907 41 79 0.0 1.0 0.00 0.08 0.03 98 1024.0
20181210103904 42 79 0.0 1.0 0.03 0.08 0.03 97 1023.8
20181210100905 42 319 0.0 2.0 0.01 0.06 0.01 97 1023.7
20181210093905 42 322 0.0 0.0 0.00 0.05 0.00 97 1023.6
20181210090905 42 322 0.0 0.0 0.00 0.05 0.00 97 1023.5